Time,TemperatureF,DewpointF,PressureIn,WindDirection,WindDirectionDegrees,WindSpeedMPH,WindSpeedGustMPH,Humidity,HourlyPrecipIn,Conditions,Clouds,dailyrainin,SolarRadiationWatts/m^2,SoftwareType,DateUTC
2013-05-26 00:22:00,44.0,36.0,-100.00,ESE,114,1.0,4.0,73,0.00,,,0.00,0.000000,,2013-05-26 05:22:00,
2013-05-26 00:32:00,44.0,36.0,-100.00,ESE,114,1.0,4.0,73,0.00,,,0.00,0.000000,,2013-05-26 05:32:00,
2013-05-26 00:42:00,44.0,36.0,-100.00,ESE,114,1.0,4.0,73,0.00,,,0.00,0.000000,,2013-05-26 05:42:00,
2013-05-26 00:52:00,44.0,36.0,-100.00,ESE,114,1.0,4.0,73,0.00,,,0.00,0.000000,,2013-05-26 05:52:00,
2013-05-26 01:01:00,44.0,36.0,-100.00,ESE,114,1.0,4.0,73,0.00,,,0.00,0.000000,,2013-05-26 06:01:00,
2013-05-26 01:22:00,42.0,35.0,-100.00,East,101,0.0,3.0,75,0.00,,,0.00,0.000000,,2013-05-26 06:22:00,
2013-05-26 01:32:00,42.0,35.0,-100.00,East,101,0.0,3.0,75,0.00,,,0.00,0.000000,,2013-05-26 06:32:00,
2013-05-26 01:42:00,42.0,35.0,-100.00,East,101,0.0,3.0,75,0.00,,,0.00,0.000000,,2013-05-26 06:42:00,
2013-05-26 01:52:00,42.0,35.0,-100.00,East,101,0.0,3.0,75,0.00,,,0.00,0.000000,,2013-05-26 06:52:00,
2013-05-26 02:01:00,42.0,35.0,-100.00,East,101,0.0,3.0,75,0.00,,,0.00,0.000000,,2013-05-26 07:01:00,
2013-05-26 02:22:00,41.0,34.0,-100.00,East,93,2.0,3.0,77,0.00,,,0.00,0.000000,,2013-05-26 07:22:00,
2013-05-26 02:32:00,41.0,34.0,-100.00,East,93,2.0,3.0,77,0.00,,,0.00,0.000000,,2013-05-26 07:32:00,
2013-05-26 02:42:00,41.0,34.0,-100.00,East,93,2.0,3.0,77,0.00,,,0.00,0.000000,,2013-05-26 07:42:00,
2013-05-26 02:52:00,41.0,34.0,-100.00,East,93,2.0,3.0,77,0.00,,,0.00,0.000000,,2013-05-26 07:52:00,
2013-05-26 03:01:00,41.0,34.0,-100.00,East,93,2.0,3.0,77,0.00,,,0.00,0.000000,,2013-05-26 08:01:00,
2013-05-26 03:22:00,40.0,33.0,-100.00,East,86,2.0,3.0,75,0.00,,,0.00,0.000000,,2013-05-26 08:22:00,
2013-05-26 03:32:00,40.0,33.0,-100.00,East,86,2.0,3.0,75,0.00,,,0.00,0.000000,,2013-05-26 08:32:00,
2013-05-26 03:42:00,40.0,33.0,-100.00,East,86,2.0,3.0,75,0.00,,,0.00,0.000000,,2013-05-26 08:42:00,
2013-05-26 03:53:00,40.0,33.0,-100.00,East,86,2.0,3.0,75,0.00,,,0.00,0.000000,,2013-05-26 08:53:00,
2013-05-26 04:01:00,40.0,33.0,-100.00,East,86,2.0,3.0,75,0.00,,,0.00,0.000000,,2013-05-26 09:01:00,
2013-05-26 04:02:00,40.0,35.0,-100.00,East,96,2.0,2.0,83,0.00,,,0.00,0.000000,,2013-05-26 09:02:00,
2013-05-26 04:22:00,40.0,35.0,-100.00,East,96,2.0,2.0,83,0.00,,,0.00,0.000000,,2013-05-26 09:22:00,
2013-05-26 04:34:00,40.0,35.0,-100.00,East,96,2.0,2.0,83,0.00,,,0.00,0.000000,,2013-05-26 09:34:00,
2013-05-26 04:43:00,40.0,35.0,-100.00,East,96,2.0,2.0,83,0.00,,,0.00,0.000000,,2013-05-26 09:43:00,
2013-05-26 04:53:00,40.0,35.0,-100.00,East,96,2.0,2.0,83,0.00,,,0.00,0.000000,,2013-05-26 09:53:00,
2013-05-26 05:02:00,38.0,35.0,-100.00,East,100,2.0,4.0,88,0.00,,,0.00,1.000000,,2013-05-26 10:02:00,
2013-05-26 05:23:00,38.0,35.0,-100.00,East,100,2.0,4.0,88,0.00,,,0.00,1.000000,,2013-05-26 10:23:00,
2013-05-26 05:33:00,38.0,35.0,-100.00,East,100,2.0,4.0,88,0.00,,,0.00,1.000000,,2013-05-26 10:33:00,
2013-05-26 05:42:00,38.0,35.0,-100.00,East,100,2.0,4.0,88,0.00,,,0.00,1.000000,,2013-05-26 10:42:00,
2013-05-26 05:52:00,38.0,35.0,-100.00,East,100,2.0,4.0,88,0.00,,,0.00,1.000000,,2013-05-26 10:52:00,
2013-05-26 06:02:00,39.0,35.0,-100.00,East,96,2.0,5.0,86,0.00,,,0.00,23.000000,,2013-05-26 11:02:00,
2013-05-26 06:22:00,39.0,35.0,-100.00,East,96,2.0,5.0,86,0.00,,,0.00,23.000000,,2013-05-26 11:22:00,
2013-05-26 06:32:00,39.0,35.0,-100.00,East,96,2.0,5.0,86,0.00,,,0.00,23.000000,,2013-05-26 11:32:00,
2013-05-26 06:42:00,39.0,35.0,-100.00,East,96,2.0,5.0,86,0.00,,,0.00,23.000000,,2013-05-26 11:42:00,
2013-05-26 06:52:00,39.0,35.0,-100.00,East,96,2.0,5.0,86,0.00,,,0.00,23.000000,,2013-05-26 11:52:00,
2013-05-26 07:02:00,47.0,36.0,-100.00,East,92,3.0,5.0,66,0.00,,,0.00,201.000000,,2013-05-26 12:02:00,
2013-05-26 07:22:00,47.0,36.0,-100.00,East,92,3.0,5.0,66,0.00,,,0.00,201.000000,,2013-05-26 12:22:00,
2013-05-26 07:32:00,47.0,36.0,-100.00,East,92,3.0,5.0,66,0.00,,,0.00,201.000000,,2013-05-26 12:32:00,
2013-05-26 07:42:00,47.0,36.0,-100.00,East,92,3.0,5.0,66,0.00,,,0.00,201.000000,,2013-05-26 12:42:00,
2013-05-26 07:52:00,47.0,36.0,-100.00,East,92,3.0,5.0,66,0.00,,,0.00,201.000000,,2013-05-26 12:52:00,
2013-05-26 08:02:00,53.0,35.0,-100.00,ESE,117,4.0,8.0,51,0.00,,,0.00,385.000000,,2013-05-26 13:02:00,
2013-05-26 08:22:00,53.0,35.0,-100.00,ESE,117,4.0,8.0,51,0.00,,,0.00,385.000000,,2013-05-26 13:22:00,
2013-05-26 08:32:00,53.0,35.0,-100.00,ESE,117,4.0,8.0,51,0.00,,,0.00,385.000000,,2013-05-26 13:32:00,
2013-05-26 08:42:00,53.0,35.0,-100.00,ESE,117,4.0,8.0,51,0.00,,,0.00,385.000000,,2013-05-26 13:42:00,
2013-05-26 08:52:00,53.0,35.0,-100.00,ESE,117,4.0,8.0,51,0.00,,,0.00,385.000000,,2013-05-26 13:52:00,
2013-05-26 09:22:00,58.0,35.0,-100.00,ESE,109,4.0,9.0,42,0.00,,,0.00,523.000000,,2013-05-26 14:22:00,
2013-05-26 09:32:00,58.0,35.0,-100.00,ESE,109,4.0,9.0,42,0.00,,,0.00,523.000000,,2013-05-26 14:32:00,
2013-05-26 09:42:00,58.0,35.0,-100.00,ESE,109,4.0,9.0,42,0.00,,,0.00,523.000000,,2013-05-26 14:42:00,
2013-05-26 09:52:00,58.0,35.0,-100.00,ESE,109,4.0,9.0,42,0.00,,,0.00,523.000000,,2013-05-26 14:52:00,
2013-05-26 10:01:00,58.0,35.0,-100.00,ESE,109,4.0,9.0,42,0.00,,,0.00,523.000000,,2013-05-26 15:01:00,
2013-05-26 10:02:00,60.0,34.0,-100.00,SE,137,5.0,11.0,37,0.00,,,0.00,646.000000,,2013-05-26 15:02:00,
2013-05-26 10:22:00,60.0,34.0,-100.00,SE,137,5.0,11.0,37,0.00,,,0.00,646.000000,,2013-05-26 15:22:00,
2013-05-26 10:33:00,60.0,34.0,-100.00,SE,137,5.0,11.0,37,0.00,,,0.00,646.000000,,2013-05-26 15:33:00,
2013-05-26 10:43:00,60.0,34.0,-100.00,SE,137,5.0,11.0,37,0.00,,,0.00,646.000000,,2013-05-26 15:43:00,
2013-05-26 10:53:00,60.0,34.0,-100.00,SE,137,5.0,11.0,37,0.00,,,0.00,646.000000,,2013-05-26 15:53:00,
2013-05-26 11:02:00,64.0,34.0,-100.00,ESE,108,4.0,9.0,32,0.00,,,0.00,796.000000,,2013-05-26 16:02:00,
2013-05-26 11:23:00,64.0,34.0,-100.00,ESE,108,4.0,9.0,32,0.00,,,0.00,796.000000,,2013-05-26 16:23:00,
2013-05-26 11:33:00,64.0,34.0,-100.00,ESE,108,4.0,9.0,32,0.00,,,0.00,796.000000,,2013-05-26 16:33:00,
2013-05-26 11:42:00,64.0,34.0,-100.00,ESE,108,4.0,9.0,32,0.00,,,0.00,796.000000,,2013-05-26 16:42:00,
2013-05-26 11:53:00,64.0,34.0,-100.00,ESE,108,4.0,9.0,32,0.00,,,0.00,796.000000,,2013-05-26 16:53:00,
2013-05-26 12:23:00,65.0,33.0,-100.00,ESE,117,4.0,11.0,30,0.00,,,0.00,814.000000,,2013-05-26 17:23:00,
2013-05-26 12:32:00,65.0,33.0,-100.00,ESE,117,4.0,11.0,30,0.00,,,0.00,814.000000,,2013-05-26 17:32:00,
2013-05-26 12:42:00,65.0,33.0,-100.00,ESE,117,4.0,11.0,30,0.00,,,0.00,814.000000,,2013-05-26 17:42:00,
2013-05-26 12:52:00,65.0,33.0,-100.00,ESE,117,4.0,11.0,30,0.00,,,0.00,814.000000,,2013-05-26 17:52:00,
2013-05-26 13:01:00,65.0,33.0,-100.00,ESE,117,4.0,11.0,30,0.00,,,0.00,814.000000,,2013-05-26 18:01:00,
2013-05-26 13:22:00,66.0,31.0,-100.00,SE,127,4.0,12.0,27,0.00,,,0.00,934.000000,,2013-05-26 18:22:00,
2013-05-26 13:32:00,66.0,31.0,-100.00,SE,127,4.0,12.0,27,0.00,,,0.00,934.000000,,2013-05-26 18:32:00,
2013-05-26 13:42:00,66.0,31.0,-100.00,SE,127,4.0,12.0,27,0.00,,,0.00,934.000000,,2013-05-26 18:42:00,
2013-05-26 13:52:00,66.0,31.0,-100.00,SE,127,4.0,12.0,27,0.00,,,0.00,934.000000,,2013-05-26 18:52:00,
2013-05-26 14:01:00,66.0,31.0,-100.00,SE,127,4.0,12.0,27,0.00,,,0.00,934.000000,,2013-05-26 19:01:00,
2013-05-26 14:02:00,68.0,30.0,-100.00,SE,128,5.0,14.0,24,0.00,,,0.00,914.000000,,2013-05-26 19:02:00,
2013-05-26 14:22:00,68.0,30.0,-100.00,SE,128,5.0,14.0,24,0.00,,,0.00,914.000000,,2013-05-26 19:22:00,
2013-05-26 14:32:00,68.0,30.0,-100.00,SE,128,5.0,14.0,24,0.00,,,0.00,914.000000,,2013-05-26 19:32:00,
2013-05-26 14:42:00,68.0,30.0,-100.00,SE,128,5.0,14.0,24,0.00,,,0.00,914.000000,,2013-05-26 19:42:00,
2013-05-26 14:52:00,68.0,30.0,-100.00,SE,128,5.0,14.0,24,0.00,,,0.00,914.000000,,2013-05-26 19:52:00,
2013-05-26 15:02:00,69.0,29.0,-100.00,SE,142,5.0,12.0,22,0.00,,,0.00,838.000000,,2013-05-26 20:02:00,
2013-05-26 15:22:00,69.0,29.0,-100.00,SE,142,5.0,12.0,22,0.00,,,0.00,838.000000,,2013-05-26 20:22:00,
2013-05-26 15:32:00,69.0,29.0,-100.00,SE,142,5.0,12.0,22,0.00,,,0.00,838.000000,,2013-05-26 20:32:00,
2013-05-26 15:42:00,69.0,29.0,-100.00,SE,142,5.0,12.0,22,0.00,,,0.00,838.000000,,2013-05-26 20:42:00,
2013-05-26 15:52:00,69.0,29.0,-100.00,SE,142,5.0,12.0,22,0.00,,,0.00,838.000000,,2013-05-26 20:52:00,
2013-05-26 16:02:00,70.0,27.0,-100.00,SSE,162,5.0,12.0,20,0.00,,,0.00,779.000000,,2013-05-26 21:02:00,
2013-05-26 16:22:00,70.0,27.0,-100.00,SSE,162,5.0,12.0,20,0.00,,,0.00,779.000000,,2013-05-26 21:22:00,
2013-05-26 16:33:00,70.0,27.0,-100.00,SSE,162,5.0,12.0,20,0.00,,,0.00,779.000000,,2013-05-26 21:33:00,
2013-05-26 16:43:00,70.0,27.0,-100.00,SSE,162,5.0,12.0,20,0.00,,,0.00,779.000000,,2013-05-26 21:43:00,
2013-05-26 16:53:00,70.0,27.0,-100.00,SSE,162,5.0,12.0,20,0.00,,,0.00,779.000000,,2013-05-26 21:53:00,
2013-05-26 17:02:00,70.0,28.0,-100.00,SSE,160,4.0,11.0,21,0.00,,,0.00,606.000000,,2013-05-26 22:02:00,
2013-05-26 17:23:00,70.0,28.0,-100.00,SSE,160,4.0,11.0,21,0.00,,,0.00,606.000000,,2013-05-26 22:23:00,
2013-05-26 17:33:00,70.0,28.0,-100.00,SSE,160,4.0,11.0,21,0.00,,,0.00,606.000000,,2013-05-26 22:33:00,
2013-05-26 17:42:00,70.0,28.0,-100.00,SSE,160,4.0,11.0,21,0.00,,,0.00,606.000000,,2013-05-26 22:42:00,
2013-05-26 17:53:00,70.0,28.0,-100.00,SSE,160,4.0,11.0,21,0.00,,,0.00,606.000000,,2013-05-26 22:53:00,
2013-05-26 18:02:00,66.0,29.0,-100.00,SE,138,4.0,12.0,25,0.00,,,0.00,333.000000,,2013-05-26 23:02:00,
2013-05-26 18:22:00,66.0,29.0,-100.00,SE,138,4.0,12.0,25,0.00,,,0.00,333.000000,,2013-05-26 23:22:00,
2013-05-26 18:32:00,66.0,29.0,-100.00,SE,138,4.0,12.0,25,0.00,,,0.00,333.000000,,2013-05-26 23:32:00,
2013-05-26 18:43:00,66.0,29.0,-100.00,SE,138,4.0,12.0,25,0.00,,,0.00,333.000000,,2013-05-26 23:43:00,
2013-05-26 18:52:00,66.0,29.0,-100.00,SE,138,4.0,12.0,25,0.00,,,0.00,333.000000,,2013-05-26 23:52:00,
2013-05-26 19:22:00,66.0,29.0,-100.00,SSE,157,4.0,12.0,25,0.00,,,0.00,255.000000,,2013-05-27 00:22:00,
2013-05-26 19:32:00,66.0,29.0,-100.00,SSE,157,4.0,12.0,25,0.00,,,0.00,255.000000,,2013-05-27 00:32:00,
2013-05-26 19:42:00,66.0,29.0,-100.00,SSE,157,4.0,12.0,25,0.00,,,0.00,255.000000,,2013-05-27 00:42:00,
2013-05-26 19:52:00,66.0,29.0,-100.00,SSE,157,4.0,12.0,25,0.00,,,0.00,255.000000,,2013-05-27 00:52:00,
2013-05-26 20:01:00,66.0,29.0,-100.00,SSE,157,4.0,12.0,25,0.00,,,0.00,255.000000,,2013-05-27 01:01:00,
2013-05-26 20:22:00,59.0,28.0,-100.00,SE,140,4.0,11.0,30,0.00,,,0.00,99.000000,,2013-05-27 01:22:00,
2013-05-26 20:32:00,59.0,28.0,-100.00,SE,140,4.0,11.0,30,0.00,,,0.00,99.000000,,2013-05-27 01:32:00,
2013-05-26 20:42:00,59.0,28.0,-100.00,SE,140,4.0,11.0,30,0.00,,,0.00,99.000000,,2013-05-27 01:42:00,
2013-05-26 20:52:00,59.0,28.0,-100.00,SE,140,4.0,11.0,30,0.00,,,0.00,99.000000,,2013-05-27 01:52:00,
2013-05-26 21:01:00,59.0,28.0,-100.00,SE,140,4.0,11.0,30,0.00,,,0.00,99.000000,,2013-05-27 02:01:00,
2013-05-26 21:02:00,53.0,31.0,-100.00,SE,136,2.0,7.0,43,0.00,,,-99.99,7.000000,,2013-05-27 02:02:00,
2013-05-26 21:22:00,53.0,31.0,-100.00,SE,136,2.0,7.0,43,0.00,,,-99.99,7.000000,,2013-05-27 02:22:00,
2013-05-26 21:32:00,53.0,31.0,-100.00,SE,136,2.0,7.0,43,0.00,,,-99.99,7.000000,,2013-05-27 02:32:00,
2013-05-26 21:43:00,53.0,31.0,-100.00,SE,136,2.0,7.0,43,0.00,,,-99.99,7.000000,,2013-05-27 02:43:00,
2013-05-26 21:52:00,53.0,31.0,-100.00,SE,136,2.0,7.0,43,0.00,,,-99.99,7.000000,,2013-05-27 02:52:00,
2013-05-26 22:02:00,50.0,32.0,-100.00,ESE,118,2.0,6.0,50,0.00,,,0.00,0.000000,,2013-05-27 03:02:00,
2013-05-26 22:21:00,50.0,32.0,-100.00,ESE,118,2.0,6.0,50,0.00,,,0.00,0.000000,,2013-05-27 03:21:00,
2013-05-26 22:33:00,50.0,32.0,-100.00,ESE,118,2.0,6.0,50,0.00,,,0.00,0.000000,,2013-05-27 03:33:00,
2013-05-26 22:43:00,50.0,32.0,-100.00,ESE,118,2.0,6.0,50,0.00,,,0.00,0.000000,,2013-05-27 03:43:00,
2013-05-26 22:53:00,50.0,32.0,-100.00,ESE,118,2.0,6.0,50,0.00,,,0.00,0.000000,,2013-05-27 03:53:00,
2013-05-26 23:02:00,45.0,33.0,-100.00,ESE,107,2.0,4.0,62,0.00,,,0.00,0.000000,,2013-05-27 04:02:00,
2013-05-26 23:23:00,45.0,33.0,-100.00,ESE,107,2.0,4.0,62,0.00,,,0.00,0.000000,,2013-05-27 04:23:00,
2013-05-26 23:33:00,45.0,33.0,-100.00,ESE,107,2.0,4.0,62,0.00,,,0.00,0.000000,,2013-05-27 04:33:00,
2013-05-26 23:43:00,45.0,33.0,-100.00,ESE,107,2.0,4.0,62,0.00,,,0.00,0.000000,,2013-05-27 04:43:00,
2013-05-26 23:52:00,45.0,33.0,-100.00,ESE,107,2.0,4.0,62,0.00,,,0.00,0.000000,,2013-05-27 04:52:00,